sat.trackr.live / text

‹ back to catalog

STARLINK-30356

NORAD 57748 · 2023-131S

PAYLOAD ACTIVE UNKNOWN

§ Identity

Operator
Country
US
Launch date
2023-09-01
Launch site
AFETR
Launch vehicle
Mass (kg)
RCS (m²)

Purposes: comms

External: N2YO · Heavens-Above · Gunter

§ Orbital elements

Epoch: 2026-09-20T22:55:13.005696Z

Period
94.27 min
Inclination
43.0017°
Eccentricity
0.0001492
Mean motion
15.27571162 rev/d
Perigee alt
482.1 km
Apogee alt
484.1 km
Semi-major
6,861.2 km
B*
7.6005e-5
RAAN
149.3691°
Arg perigee
265.2349°
Mean anomaly
94.8332°
Rev number
16,978

§ Raw data

STARLINK-303561 57748U 23131S   26263.95501164  .00001829  00000+0  76005-4 0  99922 57748  43.0017 149.3691 0001492 265.2349  94.8332 15.27571162169785

JSON: /api/v1/satellites/57748 · /tle

For live sub-satellite position, see the globe view (requires WebGL).

§ Visibility from observer

Set your observer location to see the next 7 days of passes ≥ 10°. The values pass through the URL so the page stays shareable.

No JS? Fill the form by hand. The geolocation button needs JavaScript.